| time (UTC) | temp F | wind direction | speed knots | gust knots | rain 1hr in | rain 24hr in | rain mn in | humidity % | barometer mb |
| 20260507040504 | 64 | 354 | 5.2 | 10.4 | 0.00 | 0.00 | 0.00 | 81 | 1015.7 |
| 20260507040004 | 64 | 352 | 6.1 | 12.2 | 0.00 | 0.00 | 0.00 | 81 | 1015.8 |
| 20260507035525 | 64 | 352 | 6.1 | 12.2 | 0.00 | 0.00 | 0.00 | 81 | 1015.7 |
| 20260507035003 | 64 | 355 | 6.1 | 11.3 | 0.00 | 0.00 | 0.00 | 81 | 1015.8 |
| 20260507034504 | 64 | 350 | 6.1 | 11.3 | 0.00 | 0.00 | 0.00 | 81 | 1016.1 |
| 20260507034004 | 64 | 345 | 6.1 | 11.3 | 0.00 | 0.00 | 0.00 | 81 | 1016.0 |
| 20260507033525 | 64 | 346 | 6.1 | 11.3 | 0.00 | 0.00 | 0.00 | 81 | 1015.6 |
| 20260507033025 | 64 | 348 | 6.1 | 12.2 | 0.00 | 0.00 | 0.00 | 81 | 1015.6 |
| 20260507032504 | 64 | 348 | 5.2 | 12.2 | 0.00 | 0.00 | 0.00 | 81 | 1015.7 |
| 20260507032024 | 64 | 351 | 6.1 | 14.8 | 0.00 | 0.00 | 0.00 | 81 | 1015.8 |
| 20260507031504 | 64 | 347 | 6.1 | 14.8 | 0.00 | 0.00 | 0.00 | 81 | 1015.6 |
| 20260507031004 | 64 | 339 | 5.2 | 13.9 | 0.00 | 0.00 | 0.00 | 81 | 1015.6 |
| 20260507030504 | 64 | 337 | 6.1 | 14.8 | 0.00 | 0.00 | 0.00 | 81 | 1015.7 |
| 20260507030003 | 64 | 329 | 5.2 | 14.8 | 0.00 | 0.00 | 0.00 | 81 | 1015.7 |
| 20260507025503 | 64 | 329 | 4.3 | 8.7 | 0.00 | 0.00 | 0.00 | 81 | 1015.5 |
| 20260507025025 | 64 | 341 | 4.3 | 8.7 | 0.00 | 0.00 | 0.00 | 81 | 1015.3 |
| 20260507024503 | 64 | 347 | 5.2 | 9.6 | 0.00 | 0.00 | 0.00 | 81 | 1015.2 |
| 20260507024025 | 64 | 340 | 5.2 | 11.3 | 0.00 | 0.00 | 0.00 | 81 | 1015.1 |
| 20260507023504 | 64 | 338 | 5.2 | 11.3 | 0.00 | 0.00 | 0.00 | 81 | 1015.2 |
| 20260507023004 | 64 | 345 | 4.3 | 8.7 | 0.00 | 0.00 | 0.00 | 81 | 1015.4 |
| 20260507022504 | 64 | 331 | 4.3 | 9.6 | 0.00 | 0.00 | 0.00 | 80 | 1015.3 |
| 20260507022003 | 64 | 321 | 4.3 | 9.6 | 0.00 | 0.00 | 0.00 | 80 | 1015.2 |
| 20260507021504 | 64 | 337 | 3.5 | 9.6 | 0.00 | 0.00 | 0.00 | 80 | 1015.1 |
| 20260507021025 | 64 | 350 | 4.3 | 9.6 | 0.00 | 0.00 | 0.00 | 80 | 1014.8 |
| 20260507020524 | 64 | 350 | 4.3 | 9.6 | 0.00 | 0.00 | 0.00 | 80 | 1014.4 |
| 20260507020004 | 64 | 337 | 4.3 | 9.6 | 0.00 | 0.00 | 0.00 | 80 | 1014.5 |
| 20260507015503 | 64 | 324 | 4.3 | 8.7 | 0.00 | 0.00 | 0.00 | 80 | 1014.6 |
| 20260507015004 | 64 | 327 | 4.3 | 8.7 | 0.00 | 0.00 | 0.00 | 80 | 1014.6 |
| 20260507014524 | 64 | 341 | 4.3 | 10.4 | 0.00 | 0.00 | 0.00 | 80 | 1014.6 |
| 20260507014003 | 64 | 344 | 5.2 | 14.8 | 0.00 | 0.00 | 0.00 | 80 | 1014.4 |
| 20260507013504 | 65 | 339 | 5.2 | 14.8 | 0.00 | 0.00 | 0.00 | 80 | 1014.2 |
| 20260507013003 | 65 | 333 | 5.2 | 12.2 | 0.00 | 0.00 | 0.00 | 80 | 1014.2 |
| 20260507012503 | 65 | 331 | 5.2 | 12.2 | 0.00 | 0.00 | 0.00 | 80 | 1014.0 |
| 20260507012004 | 65 | 333 | 4.3 | 12.2 | 0.00 | 0.00 | 0.00 | 79 | 1014.1 |
| 20260507011503 | 65 | 334 | 5.2 | 11.3 | 0.00 | 0.00 | 0.00 | 79 | 1014.0 |
| 20260507011003 | 65 | 335 | 5.2 | 11.3 | 0.00 | 0.00 | 0.00 | 79 | 1014.0 |
| 20260507010503 | 65 | 331 | 5.2 | 11.3 | 0.00 | 0.00 | 0.00 | 79 | 1013.9 |
| 20260507010004 | 65 | 334 | 6.1 | 12.2 | 0.00 | 0.00 | 0.00 | 79 | 1014.0 |
| 20260507005503 | 65 | 341 | 6.1 | 15.6 | 0.00 | 0.00 | 0.00 | 79 | 1013.6 |
| 20260507005004 | 65 | 336 | 6.1 | 15.6 | 0.00 | 0.00 | 0.00 | 78 | 1013.8 |
| 20260507004503 | 65 | 329 | 5.2 | 12.2 | 0.00 | 0.00 | 0.00 | 78 | 1013.5 |
| 20260507004025 | 65 | 331 | 5.2 | 11.3 | 0.00 | 0.00 | 0.00 | 78 | 1013.5 |
| 20260507003504 | 65 | 338 | 6.1 | 16.5 | 0.00 | 0.00 | 0.00 | 78 | 1013.4 |
| 20260507003003 | 65 | 343 | 7.0 | 16.5 | 0.00 | 0.00 | 0.00 | 78 | 1013.4 |
| 20260507002524 | 65 | 336 | 7.0 | 16.5 | 0.00 | 0.00 | 0.00 | 77 | 1013.4 |
| 20260507002003 | 66 | 333 | 7.0 | 15.6 | 0.00 | 0.00 | 0.00 | 77 | 1013.3 |
| 20260507001503 | 66 | 338 | 6.1 | 14.8 | 0.00 | 0.00 | 0.00 | 77 | 1013.5 |
| 20260507001003 | 66 | 341 | 6.1 | 14.8 | 0.00 | 0.00 | 0.00 | 77 | 1013.3 |
| 20260507000504 | 66 | 343 | 6.1 | 12.2 | 0.00 | 0.00 | 0.00 | 77 | 1013.1 |
| 20260507000003 | 66 | 338 | 5.2 | 12.2 | 0.00 | 0.00 | 0.00 | 77 | 1013.3 |
| 20260506235503 | 66 | 344 | 7.0 | 14.8 | 0.00 | 0.00 | 0.00 | 77 | 1013.2 |
| 20260506235003 | 66 | 345 | 6.1 | 14.8 | 0.00 | 0.00 | 0.00 | 76 | 1013.1 |
| 20260506234504 | 66 | 337 | 6.1 | 11.3 | 0.00 | 0.00 | 0.00 | 76 | 1013.1 |
| 20260506234003 | 66 | 339 | 7.0 | 13.9 | 0.00 | 0.00 | 0.00 | 76 | 1013.2 |
| 20260506233524 | 66 | 338 | 7.0 | 16.5 | 0.00 | 0.00 | 0.00 | 76 | 1013.1 |
| 20260506233025 | 66 | 336 | 7.0 | 16.5 | 0.00 | 0.00 | 0.00 | 76 | 1013.0 |
| 20260506232503 | 67 | 331 | 7.0 | 13.9 | 0.00 | 0.00 | 0.00 | 74 | 1013.0 |
| 20260506232003 | 67 | 335 | 6.1 | 14.8 | 0.00 | 0.00 | 0.00 | 74 | 1012.9 |
| 20260506231503 | 67 | 335 | 6.1 | 14.8 | 0.00 | 0.00 | 0.00 | 74 | 1012.8 |
| 20260506231004 | 67 | 327 | 5.2 | 13.9 | 0.00 | 0.00 | 0.00 | 74 | 1012.8 |
| 20260506230503 | 67 | 327 | 6.1 | 13.9 | 0.00 | 0.00 | 0.00 | 74 | 1012.9 |
| 20260506230003 | 68 | 329 | 7.0 | 13.9 | 0.00 | 0.00 | 0.00 | 73 | 1012.8 |
| 20260506225524 | 68 | 331 | 7.0 | 17.4 | 0.00 | 0.00 | 0.00 | 74 | 1012.9 |
| 20260506225004 | 68 | 329 | 8.7 | 17.4 | 0.00 | 0.00 | 0.00 | 73 | 1012.9 |
| 20260506224503 | 68 | 334 | 8.7 | 16.5 | 0.00 | 0.00 | 0.00 | 72 | 1012.8 |
| 20260506224003 | 68 | 337 | 9.6 | 15.6 | 0.00 | 0.00 | 0.00 | 71 | 1012.7 |
| 20260506223525 | 69 | 335 | 9.6 | 19.1 | 0.00 | 0.00 | 0.00 | 70 | 1012.8 |
| 20260506223003 | 70 | 338 | 7.0 | 19.1 | 0.00 | 0.00 | 0.00 | 70 | 1012.7 |
| 20260506222503 | 70 | 341 | 7.0 | 16.5 | 0.00 | 0.00 | 0.00 | 69 | 1012.5 |
| 20260506222003 | 71 | 336 | 7.0 | 16.5 | 0.00 | 0.00 | 0.00 | 69 | 1012.4 |
| 20260506221524 | 71 | 331 | 7.0 | 13.9 | 0.00 | 0.00 | 0.00 | 69 | 1012.4 |
| 20260506221003 | 72 | 342 | 8.7 | 20.9 | 0.00 | 0.00 | 0.00 | 68 | 1012.7 |
| 20260506220503 | 72 | 343 | 9.6 | 20.9 | 0.00 | 0.00 | 0.00 | 67 | 1012.5 |
| 20260506220003 | 73 | 338 | 9.6 | 16.5 | 0.00 | 0.00 | 0.00 | 66 | 1012.6 |
| 20260506215503 | 74 | 342 | 9.6 | 16.5 | 0.00 | 0.00 | 0.00 | 65 | 1012.5 |
| 20260506215024 | 75 | 343 | 9.6 | 16.5 | 0.00 | 0.00 | 0.00 | 63 | 1012.5 |
| 20260506214504 | 76 | 337 | 9.6 | 16.5 | 0.00 | 0.00 | 0.00 | 63 | 1012.4 |
| 20260506214003 | 76 | 336 | 8.7 | 15.6 | 0.00 | 0.00 | 0.00 | 63 | 1012.3 |
| 20260506213524 | 77 | 344 | 8.7 | 16.5 | 0.00 | 0.00 | 0.00 | 63 | 1012.2 |
| 20260506213003 | 77 | 341 | 8.7 | 16.5 | 0.00 | 0.00 | 0.00 | 63 | 1012.1 |
| 20260506212503 | 77 | 327 | 7.0 | 19.1 | 0.00 | 0.00 | 0.00 | 64 | 1012.0 |
| 20260506212003 | 78 | 322 | 8.7 | 19.1 | 0.00 | 0.00 | 0.00 | 63 | 1012.0 |
| 20260506211503 | 78 | 324 | 9.6 | 19.1 | 0.00 | 0.00 | 0.00 | 64 | 1012.0 |
| 20260506211003 | 78 | 330 | 9.6 | 19.1 | 0.00 | 0.00 | 0.00 | 64 | 1012.1 |
| 20260506210503 | 78 | 336 | 9.6 | 19.1 | 0.00 | 0.00 | 0.00 | 64 | 1012.1 |
| 20260506210003 | 79 | 344 | 7.0 | 17.4 | 0.00 | 0.00 | 0.00 | 64 | 1012.0 |
| 20260506205503 | 79 | 348 | 6.1 | 14.8 | 0.00 | 0.00 | 0.00 | 65 | 1012.0 |
| 20260506205003 | 79 | 338 | 7.0 | 13.9 | 0.00 | 0.00 | 0.00 | 66 | 1012.0 |
| 20260506204503 | 78 | 335 | 7.0 | 15.6 | 0.00 | 0.00 | 0.00 | 68 | 1012.1 |
| 20260506204003 | 78 | 331 | 7.0 | 16.5 | 0.00 | 0.00 | 0.00 | 68 | 1012.3 |
| 20260506203503 | 78 | 331 | 7.0 | 16.5 | 0.00 | 0.00 | 0.00 | 68 | 1012.3 |
| 20260506203024 | 77 | 336 | 8.7 | 16.5 | 0.00 | 0.00 | 0.00 | 69 | 1012.3 |
| 20260506202003 | 77 | 333 | 8.7 | 20.0 | 0.00 | 0.00 | 0.00 | 70 | 1012.3 |
| 20260506201524 | 77 | 329 | 8.7 | 16.5 | 0.00 | 0.00 | 0.00 | 71 | 1012.3 |
| 20260506201025 | 77 | 324 | 7.0 | 13.9 | 0.00 | 0.00 | 0.00 | 71 | 1012.2 |
| 20260506200539 | 77 | 322 | 7.0 | 14.8 | 0.00 | 0.00 | 0.00 | 70 | 1012.2 |
| 20260506155503 | 78 | 84 | 1.7 | 6.1 | 0.00 | 0.00 | 0.00 | 90 | 1012.5 |
| 20260506155003 | 78 | 140 | 1.7 | 5.2 | 0.00 | 0.00 | 0.00 | 90 | 1012.6 |
| 20260506154504 | 77 | 144 | 1.7 | 4.3 | 0.00 | 0.00 | 0.00 | 90 | 1012.4 |
| 20260506154004 | 77 | 144 | 1.7 | 4.3 | 0.00 | 0.00 | 0.00 | 90 | 1012.4 |
| 20260506153504 | 77 | 147 | 0.9 | 3.5 | 0.00 | 0.00 | 0.00 | 90 | 1012.3 |
| 20260506153004 | 77 | 158 | 0.9 | 1.7 | 0.00 | 0.00 | 0.00 | 90 | 1012.1 |
| 20260506152525 | 77 | 160 | 0.9 | 1.7 | 0.00 | 0.00 | 0.00 | 89 | 1012.0 |
| 20260506152004 | 77 | 160 | 0.9 | 3.5 | 0.00 | 0.00 | 0.00 | 89 | 1011.8 |
| 20260506151504 | 77 | 160 | 0.9 | 3.5 | 0.00 | 0.00 | 0.00 | 89 | 1011.8 |
| 20260506151004 | 77 | 160 | 0.9 | 3.5 | 0.00 | 0.00 | 0.00 | 90 | 1011.5 |
| 20260506150525 | 77 | 160 | 1.7 | 3.5 | 0.00 | 0.00 | 0.00 | 90 | 1011.5 |
| 20260506150004 | 77 | 160 | 1.7 | 3.5 | 0.00 | 0.00 | 0.00 | 90 | 1011.4 |
| 20260506145504 | 77 | 160 | 1.7 | 3.5 | 0.00 | 0.00 | 0.00 | 90 | 1011.3 |
| 20260506145004 | 77 | 160 | 1.7 | 4.3 | 0.00 | 0.00 | 0.00 | 90 | 1011.2 |
| 20260506144504 | 77 | 160 | 1.7 | 4.3 | 0.00 | 0.00 | 0.00 | 90 | 1011.3 |
| 20260506144025 | 77 | 160 | 1.7 | 5.2 | 0.00 | 0.00 | 0.00 | 90 | 1011.2 |
| 20260506143504 | 77 | 160 | 3.5 | 5.2 | 0.00 | 0.00 | 0.00 | 90 | 1011.1 |
| 20260506143004 | 77 | 160 | 3.5 | 5.2 | 0.00 | 0.00 | 0.00 | 91 | 1010.9 |
| 20260506142504 | 76 | 161 | 1.7 | 5.2 | 0.00 | 0.00 | 0.00 | 91 | 1010.6 |
| 20260506142025 | 76 | 161 | 1.7 | 4.3 | 0.00 | 0.00 | 0.00 | 91 | 1010.8 |
| 20260506141503 | 76 | 161 | 0.9 | 3.5 | 0.00 | 0.00 | 0.00 | 91 | 1011.0 |
| 20260506141004 | 76 | 161 | 0.0 | 3.5 | 0.00 | 0.00 | 0.00 | 91 | 1011.2 |
| 20260506140504 | 76 | 161 | 0.9 | 3.5 | 0.00 | 0.00 | 0.00 | 91 | 1011.2 |
| 20260506140004 | 76 | 161 | 1.7 | 5.2 | 0.00 | 0.00 | 0.00 | 91 | 1011.1 |
| 20260506135504 | 76 | 161 | 1.7 | 5.2 | 0.00 | 0.00 | 0.00 | 91 | 1010.8 |
| 20260506135025 | 76 | 161 | 1.7 | 4.3 | 0.00 | 0.00 | 0.00 | 92 | 1010.4 |
| 20260506134504 | 76 | 161 | 0.9 | 3.5 | 0.00 | 0.00 | 0.00 | 92 | 1010.2 |
| 20260506134004 | 76 | 161 | 0.9 | 4.3 | 0.00 | 0.00 | 0.00 | 92 | 1010.4 |
| 20260506133504 | 76 | 161 | 3.5 | 5.2 | 0.00 | 0.00 | 0.00 | 92 | 1010.3 |
| 20260506133025 | 76 | 161 | 1.7 | 5.2 | 0.00 | 0.00 | 0.00 | 92 | 1010.2 |
| 20260506132504 | 76 | 161 | 1.7 | 5.2 | 0.00 | 0.00 | 0.00 | 92 | 1010.2 |
| 20260506132004 | 76 | 161 | 1.7 | 5.2 | 0.00 | 0.00 | 0.00 | 92 | 1010.2 |
| 20260506131504 | 76 | 161 | 3.5 | 6.1 | 0.00 | 0.00 | 0.00 | 92 | 1010.3 |
| 20260506131003 | 76 | 162 | 3.5 | 6.1 | 0.00 | 0.00 | 0.00 | 92 | 1010.1 |
| 20260506130505 | 76 | 162 | 1.7 | 5.2 | 0.00 | 0.00 | 0.00 | 92 | 1010.1 |
| 20260506130005 | 75 | 162 | 1.7 | 6.1 | 0.00 | 0.00 | 0.00 | 91 | 1010.1 |
| 20260506125503 | 75 | 162 | 3.5 | 6.1 | 0.00 | 0.00 | 0.00 | 91 | 1010.0 |
| 20260506125004 | 75 | 164 | 3.5 | 6.1 | 0.00 | 0.00 | 0.00 | 91 | 1009.9 |
| 20260506124525 | 75 | 167 | 1.7 | 5.2 | 0.00 | 0.00 | 0.00 | 91 | 1010.0 |
| 20260506124004 | 75 | 167 | 1.7 | 4.3 | 0.00 | 0.00 | 0.00 | 91 | 1010.0 |
| 20260506123504 | 75 | 167 | 1.7 | 4.3 | 0.00 | 0.00 | 0.00 | 91 | 1009.9 |
| 20260506123004 | 75 | 167 | 3.5 | 5.2 | 0.00 | 0.00 | 0.00 | 91 | 1010.0 |
| 20260506122504 | 75 | 167 | 1.7 | 5.2 | 0.00 | 0.00 | 0.00 | 91 | 1010.1 |
| 20260506122024 | 75 | 167 | 1.7 | 5.2 | 0.00 | 0.00 | 0.00 | 91 | 1010.1 |
| 20260506121524 | 75 | 170 | 1.7 | 5.2 | 0.00 | 0.00 | 0.00 | 91 | 1010.0 |
| 20260506121004 | 75 | 172 | 1.7 | 4.3 | 0.00 | 0.00 | 0.00 | 91 | 1009.9 |
| 20260506120504 | 75 | 172 | 0.9 | 3.5 | 0.00 | 0.00 | 0.00 | 90 | 1009.9 |
| 20260506120004 | 75 | 172 | 0.9 | 3.5 | 0.00 | 0.00 | 0.00 | 90 | 1009.8 |
| 20260506115525 | 75 | 172 | 0.9 | 3.5 | 0.00 | 0.00 | 0.00 | 90 | 1009.8 |
| 20260506115004 | 75 | 172 | 0.9 | 4.3 | 0.00 | 0.00 | 0.00 | 90 | 1009.7 |
| 20260506114503 | 75 | 172 | 0.9 | 4.3 | 0.00 | 0.00 | 0.00 | 90 | 1009.8 |
| 20260506114003 | 75 | 172 | 0.9 | 3.5 | 0.00 | 0.00 | 0.00 | 90 | 1009.8 |
| 20260506113503 | 75 | 172 | 0.9 | 3.5 | 0.00 | 0.00 | 0.00 | 90 | 1009.8 |
| 20260506113025 | 76 | 172 | 0.9 | 3.5 | 0.00 | 0.00 | 0.00 | 90 | 1009.8 |
| 20260506112504 | 76 | 172 | 0.9 | 1.7 | 0.00 | 0.00 | 0.00 | 90 | 1009.7 |
| 20260506112003 | 75 | 172 | 0.9 | 1.7 | 0.00 | 0.00 | 0.00 | 90 | 1009.8 |
| 20260506111524 | 76 | 172 | 0.9 | 3.5 | 0.00 | 0.00 | 0.00 | 90 | 1009.8 |
| 20260506111004 | 76 | 172 | 1.7 | 4.3 | 0.00 | 0.00 | 0.00 | 90 | 1009.7 |
| 20260506110525 | 76 | 172 | 1.7 | 5.2 | 0.00 | 0.00 | 0.00 | 90 | 1009.6 |
| 20260506110004 | 76 | 172 | 0.9 | 5.2 | 0.00 | 0.00 | 0.00 | 90 | 1009.6 |
| 20260506105504 | 76 | 172 | 1.7 | 5.2 | 0.00 | 0.00 | 0.00 | 91 | 1009.6 |
| 20260506105004 | 76 | 172 | 1.7 | 5.2 | 0.00 | 0.00 | 0.00 | 90 | 1009.5 |
| 20260506104504 | 76 | 172 | 1.7 | 6.1 | 0.00 | 0.00 | 0.00 | 91 | 1009.4 |
| 20260506104025 | 76 | 172 | 3.5 | 6.1 | 0.00 | 0.00 | 0.00 | 91 | 1009.5 |
| 20260506103525 | 76 | 172 | 1.7 | 6.1 | 0.00 | 0.00 | 0.00 | 91 | 1009.4 |
| 20260506103025 | 76 | 172 | 3.5 | 6.1 | 0.00 | 0.00 | 0.00 | 91 | 1009.2 |
| 20260506102525 | 76 | 171 | 3.5 | 7.0 | 0.00 | 0.00 | 0.00 | 90 | 1009.2 |
| 20260506102003 | 76 | 174 | 3.5 | 7.0 | 0.00 | 0.00 | 0.00 | 91 | 1009.2 |
| 20260506101503 | 76 | 179 | 4.3 | 7.0 | 0.00 | 0.00 | 0.00 | 91 | 1009.1 |
| 20260506101004 | 76 | 180 | 4.3 | 7.0 | 0.00 | 0.00 | 0.00 | 91 | 1009.0 |
| 20260506100525 | 76 | 181 | 4.3 | 7.0 | 0.00 | 0.00 | 0.00 | 91 | 1009.0 |
| 20260506100025 | 76 | 172 | 4.3 | 8.7 | 0.00 | 0.00 | 0.00 | 91 | 1009.0 |
| 20260506095503 | 76 | 160 | 4.3 | 8.7 | 0.00 | 0.00 | 0.00 | 91 | 1009.0 |
| 20260506095004 | 76 | 173 | 4.3 | 7.0 | 0.00 | 0.00 | 0.00 | 91 | 1009.0 |
| 20260506094503 | 76 | 174 | 4.3 | 7.0 | 0.00 | 0.00 | 0.00 | 91 | 1009.0 |
| 20260506094004 | 76 | 168 | 4.3 | 8.7 | 0.00 | 0.00 | 0.00 | 91 | 1008.9 |
| 20260506093503 | 76 | 173 | 4.3 | 8.7 | 0.00 | 0.00 | 0.00 | 91 | 1008.8 |
| 20260506093003 | 76 | 174 | 4.3 | 8.7 | 0.00 | 0.00 | 0.00 | 91 | 1008.8 |
| 20260506092503 | 76 | 170 | 4.3 | 8.7 | 0.00 | 0.00 | 0.00 | 91 | 1008.7 |
| 20260506092004 | 76 | 168 | 4.3 | 7.0 | 0.00 | 0.00 | 0.00 | 91 | 1008.7 |
| 20260506091524 | 76 | 168 | 4.3 | 8.7 | 0.00 | 0.00 | 0.00 | 91 | 1008.7 |
| 20260506091004 | 76 | 167 | 4.3 | 9.6 | 0.00 | 0.00 | 0.00 | 90 | 1008.7 |
| 20260506090503 | 76 | 166 | 4.3 | 9.6 | 0.00 | 0.00 | 0.00 | 90 | 1008.6 |
| 20260506090003 | 76 | 172 | 5.2 | 11.3 | 0.00 | 0.00 | 0.00 | 90 | 1008.7 |
| 20260506085524 | 76 | 177 | 4.3 | 11.3 | 0.00 | 0.00 | 0.00 | 90 | 1008.7 |
| 20260506085004 | 76 | 173 | 4.3 | 8.7 | 0.00 | 0.00 | 0.00 | 90 | 1008.6 |
| 20260506084525 | 76 | 169 | 5.2 | 9.6 | 0.00 | 0.00 | 0.00 | 90 | 1008.6 |
| 20260506084024 | 76 | 165 | 5.2 | 9.6 | 0.00 | 0.00 | 0.00 | 90 | 1008.7 |
| 20260506083504 | 76 | 164 | 4.3 | 9.6 | 0.00 | 0.00 | 0.00 | 90 | 1008.6 |
| 20260506083003 | 76 | 172 | 5.2 | 9.6 | 0.00 | 0.00 | 0.00 | 90 | 1008.7 |
| 20260506082504 | 76 | 172 | 5.2 | 10.4 | 0.00 | 0.00 | 0.00 | 90 | 1008.7 |
| 20260506082004 | 76 | 160 | 4.3 | 10.4 | 0.00 | 0.00 | 0.00 | 90 | 1008.6 |
| 20260506081503 | 76 | 156 | 4.3 | 9.6 | 0.00 | 0.00 | 0.00 | 89 | 1008.6 |
| 20260506081003 | 76 | 168 | 5.2 | 9.6 | 0.00 | 0.00 | 0.00 | 89 | 1008.7 |
| 20260506080503 | 76 | 168 | 6.1 | 9.6 | 0.00 | 0.00 | 0.00 | 89 | 1008.6 |
| 20260506073503 | 76 | 169 | 5.2 | 10.4 | 0.00 | 0.00 | 0.00 | 89 | 1009.0 |
| 20260506073003 | 76 | 166 | 5.2 | 12.2 | 0.00 | 0.00 | 0.00 | 89 | 1009.1 |
| 20260506072524 | 76 | 164 | 6.1 | 12.2 | 0.00 | 0.00 | 0.00 | 89 | 1009.1 |
| 20260506072003 | 76 | 166 | 6.1 | 12.2 | 0.00 | 0.00 | 0.00 | 89 | 1009.2 |
| 20260506071503 | 76 | 169 | 6.1 | 12.2 | 0.00 | 0.00 | 0.00 | 89 | 1009.2 |
| 20260506071024 | 76 | 168 | 5.2 | 11.3 | 0.00 | 0.00 | 0.00 | 89 | 1009.3 |
| 20260506070503 | 76 | 169 | 5.2 | 10.4 | 0.00 | 0.00 | 0.00 | 89 | 1009.4 |
| 20260506062503 | 76 | 164 | 4.3 | 13.9 | 0.00 | 0.00 | 0.00 | 88 | 1009.3 |
| 20260506062003 | 76 | 170 | 4.3 | 9.6 | 0.00 | 0.00 | 0.00 | 88 | 1009.3 |
| 20260506061503 | 76 | 162 | 5.2 | 9.6 | 0.00 | 0.00 | 0.00 | 88 | 1009.2 |
| 20260506061003 | 76 | 163 | 5.2 | 8.7 | 0.00 | 0.00 | 0.00 | 88 | 1009.2 |
| 20260506060504 | 76 | 162 | 5.2 | 9.6 | 0.00 | 0.00 | 0.00 | 88 | 1009.2 |
| 20260506051003 | 77 | 166 | 6.1 | 17.4 | 0.00 | 0.00 | 0.00 | 87 | 1009.4 |
| 20260506050503 | 77 | 167 | 6.1 | 17.4 | 0.00 | 0.00 | 0.00 | 87 | 1009.4 |
| 20260506045003 | 77 | 164 | 5.2 | 12.2 | 0.00 | 0.00 | 0.00 | 86 | 1009.4 |
| 20260506044503 | 77 | 164 | 5.2 | 12.2 | 0.00 | 0.00 | 0.00 | 86 | 1009.5 |
| 20260506044003 | 77 | 162 | 5.2 | 12.2 | 0.00 | 0.00 | 0.00 | 86 | 1009.5 |
| 20260506043503 | 77 | 149 | 4.3 | 9.6 | 0.00 | 0.00 | 0.00 | 87 | 1009.5 |
| 20260506043003 | 77 | 150 | 4.3 | 9.6 | 0.00 | 0.00 | 0.00 | 87 | 1009.6 |
| 20260506042503 | 77 | 161 | 3.5 | 6.1 | 0.00 | 0.00 | 0.00 | 87 | 1009.4 |
| 20260506042024 | 77 | 155 | 4.3 | 8.7 | 0.00 | 0.00 | 0.00 | 87 | 1009.4 |
| 20260506041503 | 77 | 157 | 4.3 | 9.6 | 0.00 | 0.00 | 0.00 | 87 | 1009.3 |
| 20260506041003 | 77 | 153 | 4.3 | 9.6 | 0.00 | 0.00 | 0.00 | 87 | 1009.3 |